Time,TemperatureF,DewpointF,PressureIn,WindDirection,WindDirectionDegrees,WindSpeedMPH,WindSpeedGustMPH,Humidity,HourlyPrecipIn,Conditions,Clouds,dailyrainin,SoftwareType,DateUTC
2013-03-08 00:01:00,56.5,55.6,30.05,NW,315,0.0,1.0,97,0.00,,,0.00,meteohub,2013-03-08 05:01:00,
2013-03-08 00:02:00,56.5,55.6,30.05,NW,315,0.0,1.0,97,0.00,,,0.00,meteohub,2013-03-08 05:02:00,
2013-03-08 00:06:00,56.3,55.4,30.05,NW,315,0.0,1.0,97,0.00,,,0.00,meteohub,2013-03-08 05:06:00,
2013-03-08 00:11:00,56.1,55.2,30.05,West,270,0.0,1.0,97,0.00,,,0.00,meteohub,2013-03-08 05:11:00,
2013-03-08 00:16:00,55.9,55.0,30.05,West,270,0.0,1.0,97,0.00,,,0.00,meteohub,2013-03-08 05:16:00,
2013-03-08 00:21:00,55.8,54.9,30.06,West,270,0.0,1.0,97,0.00,,,0.00,meteohub,2013-03-08 05:21:00,
2013-03-08 00:26:00,55.6,54.7,30.05,West,270,0.0,1.0,97,0.00,,,0.00,meteohub,2013-03-08 05:26:00,
2013-03-08 00:31:00,55.4,54.9,30.05,West,270,0.0,0.0,98,0.00,,,0.00,meteohub,2013-03-08 05:31:00,
2013-03-08 00:36:00,55.2,54.7,30.05,West,270,0.0,0.0,98,0.00,,,0.00,meteohub,2013-03-08 05:36:00,
2013-03-08 00:41:00,55.0,54.5,30.05,West,270,0.0,0.0,98,0.00,,,0.00,meteohub,2013-03-08 05:41:00,
2013-03-08 00:46:00,54.9,54.3,30.05,West,270,0.0,0.0,98,0.00,,,0.00,meteohub,2013-03-08 05:46:00,
2013-03-08 00:51:00,54.7,54.1,30.06,West,270,0.0,0.0,98,0.00,,,0.00,meteohub,2013-03-08 05:51:00,
2013-03-08 00:57:00,54.7,54.3,30.05,West,270,0.0,0.0,99,0.00,,,0.00,meteohub,2013-03-08 05:57:00,
2013-03-08 01:02:00,54.5,54.1,30.06,West,270,0.0,0.0,99,0.00,,,0.00,meteohub,2013-03-08 06:02:00,
2013-03-08 01:07:00,54.5,54.1,30.05,West,270,0.0,0.0,99,0.00,,,0.00,meteohub,2013-03-08 06:07:00,
2013-03-08 01:12:00,54.3,54.0,30.05,West,270,0.0,0.0,99,0.00,,,0.00,meteohub,2013-03-08 06:12:00,
2013-03-08 01:17:00,54.3,54.0,30.05,West,270,0.0,0.0,99,0.00,,,0.00,meteohub,2013-03-08 06:17:00,
2013-03-08 01:22:00,54.1,53.8,30.05,West,270,0.0,0.0,99,0.00,,,0.00,meteohub,2013-03-08 06:22:00,
2013-03-08 01:27:00,54.3,54.0,30.05,West,270,2.0,0.0,99,0.00,,,0.00,meteohub,2013-03-08 06:27:00,
2013-03-08 01:32:00,54.3,54.0,30.04,NW,315,1.0,2.0,99,0.00,,,0.00,meteohub,2013-03-08 06:32:00,
2013-03-08 01:37:00,54.7,54.3,30.05,West,270,0.0,2.0,99,0.00,,,0.00,meteohub,2013-03-08 06:37:00,
2013-03-08 01:42:00,54.7,54.3,30.05,West,270,1.0,2.0,99,0.00,,,0.00,meteohub,2013-03-08 06:42:00,
2013-03-08 01:47:00,54.7,54.3,30.05,West,270,1.0,2.0,99,0.00,,,0.00,meteohub,2013-03-08 06:47:00,
2013-03-08 01:52:00,54.7,54.3,30.05,NW,315,1.0,2.0,99,0.00,,,0.00,meteohub,2013-03-08 06:52:00,
2013-03-08 01:57:00,54.7,54.3,30.04,NW,315,1.0,1.0,99,0.00,,,0.00,meteohub,2013-03-08 06:57:00,
2013-03-08 02:02:00,54.7,54.3,30.04,West,270,2.0,2.0,99,0.00,,,0.00,meteohub,2013-03-08 07:02:00,
2013-03-08 02:07:00,54.9,54.5,30.04,NW,315,2.0,2.0,99,0.00,,,0.00,meteohub,2013-03-08 07:07:00,
2013-03-08 02:12:00,54.9,54.5,30.04,NW,315,1.0,2.0,99,0.00,,,0.00,meteohub,2013-03-08 07:12:00,
2013-03-08 02:17:00,54.7,54.3,30.04,West,270,1.0,2.0,99,0.00,,,0.00,meteohub,2013-03-08 07:17:00,
2013-03-08 02:22:00,54.5,54.1,30.04,West,270,1.0,2.0,99,0.00,,,0.00,meteohub,2013-03-08 07:22:00,
2013-03-08 02:27:00,54.7,54.3,30.04,NW,315,2.0,3.0,99,0.00,,,0.00,meteohub,2013-03-08 07:27:00,
2013-03-08 02:32:00,54.7,54.3,30.04,West,270,3.0,4.0,99,0.00,,,0.00,meteohub,2013-03-08 07:32:00,
2013-03-08 02:37:00,54.7,54.3,30.04,West,270,2.0,4.0,99,0.00,,,0.00,meteohub,2013-03-08 07:37:00,
2013-03-08 02:42:00,54.5,54.1,30.04,NW,315,2.0,4.0,99,0.00,,,0.00,meteohub,2013-03-08 07:42:00,
2013-03-08 02:47:00,54.3,54.0,30.04,NW,315,2.0,4.0,99,0.00,,,0.00,meteohub,2013-03-08 07:47:00,
2013-03-08 02:52:00,54.1,53.8,30.03,West,270,1.0,4.0,99,0.00,,,0.00,meteohub,2013-03-08 07:52:00,
2013-03-08 02:57:00,54.0,53.6,30.03,NW,315,3.0,4.0,99,0.00,,,0.00,meteohub,2013-03-08 07:57:00,
2013-03-08 03:02:00,54.0,53.6,30.03,NW,315,1.0,3.0,99,0.00,,,0.00,meteohub,2013-03-08 08:02:00,
2013-03-08 03:07:00,53.8,53.4,30.03,NW,315,1.0,4.0,99,0.00,,,0.00,meteohub,2013-03-08 08:07:00,
2013-03-08 03:12:00,53.8,53.4,30.03,NW,315,1.0,4.0,99,0.00,,,0.00,meteohub,2013-03-08 08:12:00,
2013-03-08 03:17:00,53.6,53.2,30.03,NW,315,1.0,4.0,99,0.00,,,0.00,meteohub,2013-03-08 08:17:00,
2013-03-08 03:22:00,53.6,53.2,30.03,NW,315,2.0,2.0,99,0.00,,,0.00,meteohub,2013-03-08 08:22:00,
2013-03-08 03:27:00,53.6,53.2,30.04,North,0,2.0,3.0,99,0.00,,,0.00,meteohub,2013-03-08 08:27:00,
2013-03-08 03:32:00,53.6,53.2,30.04,NW,315,3.0,3.0,99,0.00,,,0.00,meteohub,2013-03-08 08:32:00,
2013-03-08 03:37:00,53.6,53.2,30.03,West,270,2.0,3.0,99,0.00,,,0.00,meteohub,2013-03-08 08:37:00,
2013-03-08 03:42:00,53.4,53.1,30.03,NW,315,2.0,3.0,99,0.00,,,0.00,meteohub,2013-03-08 08:42:00,
2013-03-08 03:47:00,53.2,52.9,30.03,NW,315,1.0,3.0,99,0.00,,,0.00,meteohub,2013-03-08 08:47:00,
2013-03-08 03:52:00,53.1,52.7,30.03,NW,315,1.0,2.0,99,0.00,,,0.00,meteohub,2013-03-08 08:52:00,
2013-03-08 03:57:00,53.1,52.7,30.03,North,0,2.0,2.0,99,0.00,,,0.00,meteohub,2013-03-08 08:57:00,
2013-03-08 04:02:00,53.1,52.7,30.03,NW,315,1.0,2.0,99,0.00,,,0.00,meteohub,2013-03-08 09:02:00,
2013-03-08 04:07:00,53.1,52.7,30.03,North,0,2.0,2.0,99,0.00,,,0.00,meteohub,2013-03-08 09:07:00,
2013-03-08 04:12:00,53.1,52.7,30.03,North,0,1.0,3.0,99,0.00,,,0.00,meteohub,2013-03-08 09:12:00,
2013-03-08 04:17:00,52.9,52.5,30.03,North,0,2.0,3.0,99,0.00,,,0.00,meteohub,2013-03-08 09:17:00,
2013-03-08 04:22:00,52.7,52.3,30.03,North,0,1.0,3.0,99,0.00,,,0.00,meteohub,2013-03-08 09:22:00,
2013-03-08 04:27:00,52.7,52.3,30.02,North,0,2.0,2.0,99,0.00,,,0.00,meteohub,2013-03-08 09:27:00,
2013-03-08 04:32:00,52.9,52.5,30.03,North,0,1.0,2.0,99,0.00,,,0.00,meteohub,2013-03-08 09:32:00,
2013-03-08 04:37:00,52.7,52.3,30.02,North,0,1.0,2.0,99,0.00,,,0.00,meteohub,2013-03-08 09:37:00,
2013-03-08 04:42:00,52.5,52.2,30.03,North,0,1.0,2.0,99,0.00,,,0.00,meteohub,2013-03-08 09:42:00,
2013-03-08 04:47:00,52.7,52.3,30.03,North,0,2.0,2.0,99,0.00,,,0.00,meteohub,2013-03-08 09:47:00,
2013-03-08 04:52:00,52.7,52.3,30.03,NW,315,1.0,2.0,99,0.00,,,0.00,meteohub,2013-03-08 09:52:00,
2013-03-08 04:57:00,52.7,52.3,30.04,North,0,2.0,2.0,99,0.00,,,0.00,meteohub,2013-03-08 09:57:00,
2013-03-08 05:02:00,52.5,52.2,30.03,North,0,1.0,2.0,99,0.00,,,0.00,meteohub,2013-03-08 10:02:00,
2013-03-08 05:07:00,52.5,52.2,30.03,North,0,2.0,3.0,99,0.00,,,0.00,meteohub,2013-03-08 10:07:00,
2013-03-08 05:12:00,52.5,52.2,30.04,NW,315,1.0,3.0,99,0.00,,,0.00,meteohub,2013-03-08 10:12:00,
2013-03-08 05:17:00,52.5,52.2,30.04,West,270,1.0,3.0,99,0.00,,,0.00,meteohub,2013-03-08 10:17:00,
2013-03-08 05:22:00,52.5,52.2,30.04,NW,315,1.0,3.0,99,0.00,,,0.00,meteohub,2013-03-08 10:22:00,
2013-03-08 05:27:00,52.5,52.2,30.04,North,0,1.0,3.0,99,0.00,,,0.00,meteohub,2013-03-08 10:27:00,
2013-03-08 05:32:00,52.5,52.2,30.04,NW,315,1.0,2.0,99,0.00,,,0.00,meteohub,2013-03-08 10:32:00,
2013-03-08 05:37:00,52.3,52.0,30.04,NW,315,1.0,2.0,99,0.00,,,0.00,meteohub,2013-03-08 10:37:00,
2013-03-08 05:42:00,52.3,52.0,30.04,North,0,2.0,2.0,99,0.00,,,0.00,meteohub,2013-03-08 10:42:00,
2013-03-08 05:47:00,52.5,52.2,30.04,North,0,1.0,3.0,99,0.00,,,0.00,meteohub,2013-03-08 10:47:00,
2013-03-08 05:52:00,52.3,52.0,30.04,North,0,1.0,3.0,99,0.00,,,0.00,meteohub,2013-03-08 10:52:00,
2013-03-08 05:57:00,52.2,51.8,30.04,NW,315,1.0,3.0,99,0.00,,,0.00,meteohub,2013-03-08 10:57:00,
2013-03-08 06:02:00,52.2,51.8,30.05,North,0,1.0,2.0,99,0.00,,,0.00,meteohub,2013-03-08 11:02:00,
2013-03-08 06:07:00,52.2,51.8,30.05,North,0,1.0,2.0,99,0.00,,,0.00,meteohub,2013-03-08 11:07:00,
2013-03-08 06:12:00,52.2,51.8,30.04,North,0,2.0,2.0,99,0.00,,,0.00,meteohub,2013-03-08 11:12:00,
2013-03-08 06:17:00,52.2,51.8,30.04,North,0,2.0,2.0,99,0.00,,,0.00,meteohub,2013-03-08 11:17:00,
2013-03-08 06:22:00,52.3,52.0,30.04,North,0,2.0,3.0,99,0.00,,,0.00,meteohub,2013-03-08 11:22:00,
2013-03-08 06:27:00,52.5,52.2,30.05,WNW,293,1.0,3.0,99,0.00,,,0.00,meteohub,2013-03-08 11:27:00,
2013-03-08 06:32:00,52.3,52.0,30.05,North,0,2.0,3.0,99,0.00,,,0.00,meteohub,2013-03-08 11:32:00,
2013-03-08 06:37:00,52.3,52.0,30.05,NW,315,2.0,3.0,99,0.00,,,0.00,meteohub,2013-03-08 11:37:00,
2013-03-08 06:42:00,52.5,52.2,30.06,North,0,1.0,3.0,99,0.00,,,0.00,meteohub,2013-03-08 11:42:00,
2013-03-08 06:47:00,52.5,52.0,30.06,North,0,1.0,3.0,98,0.00,,,0.00,meteohub,2013-03-08 11:47:00,
2013-03-08 06:52:00,52.9,52.3,30.06,NW,315,2.0,3.0,98,0.00,,,0.00,meteohub,2013-03-08 11:52:00,
2013-03-08 06:57:00,53.6,52.7,30.06,North,0,2.0,3.0,97,0.00,,,0.00,meteohub,2013-03-08 11:57:00,
2013-03-08 07:02:00,54.3,53.2,30.06,West,270,2.0,2.0,96,0.00,,,0.00,meteohub,2013-03-08 12:02:00,
2013-03-08 07:07:00,55.2,53.6,30.06,NW,315,1.0,2.0,94,0.00,,,0.00,meteohub,2013-03-08 12:07:00,
2013-03-08 07:12:00,56.3,53.8,30.06,North,0,2.0,2.0,91,0.00,,,0.00,meteohub,2013-03-08 12:12:00,
2013-03-08 07:17:00,57.6,54.0,30.06,NW,315,2.0,4.0,88,0.00,,,0.00,meteohub,2013-03-08 12:17:00,
2013-03-08 07:22:00,58.6,54.1,30.07,NW,315,2.0,4.0,85,0.00,,,0.00,meteohub,2013-03-08 12:22:00,
2013-03-08 07:27:00,59.2,53.6,30.07,North,0,4.0,4.0,82,0.00,,,0.00,meteohub,2013-03-08 12:27:00,
2013-03-08 07:32:00,59.7,54.0,30.07,NW,315,3.0,4.0,81,0.00,,,0.00,meteohub,2013-03-08 12:32:00,
2013-03-08 07:37:00,60.4,54.0,30.06,North,0,4.0,4.0,79,0.00,,,0.00,meteohub,2013-03-08 12:37:00,
2013-03-08 07:42:00,60.8,54.0,30.07,North,0,4.0,4.0,78,0.00,,,0.00,meteohub,2013-03-08 12:42:00,
2013-03-08 07:47:00,61.5,54.3,30.07,North,0,2.0,4.0,77,0.00,,,0.00,meteohub,2013-03-08 12:47:00,
2013-03-08 07:52:00,62.6,54.9,30.07,North,0,2.0,4.0,76,0.00,,,0.00,meteohub,2013-03-08 12:52:00,
2013-03-08 07:57:00,63.1,54.3,30.07,North,0,3.0,4.0,73,0.00,,,0.00,meteohub,2013-03-08 12:57:00,
2013-03-08 08:02:00,63.3,54.1,30.07,NW,315,4.0,5.0,72,0.00,,,0.00,meteohub,2013-03-08 13:02:00,
2013-03-08 08:07:00,63.9,54.3,30.08,North,0,2.0,6.0,71,0.00,,,0.00,meteohub,2013-03-08 13:07:00,
2013-03-08 08:12:00,64.8,54.7,30.08,North,0,4.0,6.0,70,0.00,,,0.00,meteohub,2013-03-08 13:12:00,
2013-03-08 08:17:00,65.1,54.7,30.08,North,0,4.0,6.0,69,0.00,,,0.00,meteohub,2013-03-08 13:17:00,
2013-03-08 08:22:00,65.8,55.0,30.08,North,0,3.0,6.0,68,0.00,,,0.00,meteohub,2013-03-08 13:22:00,
2013-03-08 08:28:00,66.2,54.1,30.09,North,0,4.0,6.0,65,0.00,,,0.00,meteohub,2013-03-08 13:28:00,
2013-03-08 08:33:00,67.1,55.8,30.08,NW,315,2.0,6.0,67,0.00,,,0.00,meteohub,2013-03-08 13:33:00,
2013-03-08 08:38:00,67.5,54.5,30.09,North,0,5.0,7.0,63,0.00,,,0.00,meteohub,2013-03-08 13:38:00,
2013-03-08 08:43:00,67.1,53.6,30.08,North,0,4.0,7.0,62,0.00,,,0.00,meteohub,2013-03-08 13:43:00,
2013-03-08 08:48:00,67.6,54.1,30.08,NW,315,4.0,8.0,62,0.00,,,0.00,meteohub,2013-03-08 13:48:00,
2013-03-08 08:53:00,68.2,54.1,30.08,NW,315,4.0,8.0,61,0.00,,,0.00,meteohub,2013-03-08 13:53:00,
2013-03-08 08:59:00,68.4,54.3,30.08,WNW,293,4.0,8.0,61,0.00,,,0.00,meteohub,2013-03-08 13:59:00,
2013-03-08 09:04:00,69.3,54.3,30.08,North,0,3.0,7.0,59,0.00,,,0.00,meteohub,2013-03-08 14:04:00,
2013-03-08 09:09:00,71.1,53.6,30.09,North,0,3.0,7.0,54,0.00,,,0.00,meteohub,2013-03-08 14:09:00,
2013-03-08 09:14:00,71.6,52.5,30.09,North,0,7.0,7.0,51,0.00,,,0.00,meteohub,2013-03-08 14:14:00,
2013-03-08 09:19:00,70.9,51.3,30.09,NW,315,4.0,6.0,50,0.00,,,0.00,meteohub,2013-03-08 14:19:00,
2013-03-08 09:24:00,70.9,50.7,30.09,NW,315,8.0,8.0,49,0.00,,,0.00,meteohub,2013-03-08 14:24:00,
2013-03-08 09:29:00,71.4,50.7,30.09,North,0,4.0,8.0,48,0.00,,,0.00,meteohub,2013-03-08 14:29:00,
2013-03-08 09:34:00,72.0,50.7,30.09,North,0,4.0,9.0,47,0.00,,,0.00,meteohub,2013-03-08 14:34:00,
2013-03-08 09:40:00,72.9,50.9,30.09,NW,315,2.0,9.0,46,0.00,,,0.00,meteohub,2013-03-08 14:40:00,
2013-03-08 09:45:00,73.0,49.8,30.09,West,270,5.0,9.0,44,0.00,,,0.00,meteohub,2013-03-08 14:45:00,
2013-03-08 09:50:00,73.6,49.6,30.09,North,0,4.0,7.0,43,0.00,,,0.00,meteohub,2013-03-08 14:50:00,
2013-03-08 09:55:00,74.3,49.1,30.09,North,0,4.0,7.0,41,0.00,,,0.00,meteohub,2013-03-08 14:55:00,
2013-03-08 10:00:00,74.1,48.9,30.09,NW,315,2.0,7.0,41,0.00,,,0.00,meteohub,2013-03-08 15:00:00,
2013-03-08 10:05:00,74.1,48.9,30.09,North,0,6.0,7.0,41,0.00,,,0.00,meteohub,2013-03-08 15:05:00,
2013-03-08 10:10:00,73.6,47.8,30.09,NW,315,3.0,7.0,40,0.00,,,0.00,meteohub,2013-03-08 15:10:00,
2013-03-08 10:16:00,73.2,47.5,30.09,NW,315,5.0,8.0,40,0.00,,,0.00,meteohub,2013-03-08 15:16:00,
2013-03-08 10:21:00,73.6,47.8,30.09,NW,315,5.0,8.0,40,0.00,,,0.00,meteohub,2013-03-08 15:21:00,
2013-03-08 10:26:00,73.4,47.7,30.09,NW,315,5.0,8.0,40,0.00,,,0.00,meteohub,2013-03-08 15:26:00,
2013-03-08 10:31:00,73.8,48.6,30.09,NW,315,6.0,8.0,41,0.00,,,0.00,meteohub,2013-03-08 15:31:00,
2013-03-08 10:36:00,74.5,49.3,30.09,NW,315,4.0,8.0,41,0.00,,,0.00,meteohub,2013-03-08 15:36:00,
2013-03-08 10:41:00,74.5,47.8,30.09,North,0,8.0,8.0,39,0.00,,,0.00,meteohub,2013-03-08 15:41:00,
2013-03-08 10:46:00,74.8,48.2,30.09,NW,315,5.0,9.0,39,0.00,,,0.00,meteohub,2013-03-08 15:46:00,
2013-03-08 10:52:00,74.8,47.5,30.09,SW,225,6.0,9.0,38,0.00,,,0.00,meteohub,2013-03-08 15:52:00,
2013-03-08 10:57:00,74.7,48.0,30.09,WNW,293,5.0,8.0,39,0.00,,,0.00,meteohub,2013-03-08 15:57:00,
2013-03-08 11:02:00,75.0,48.4,30.08,West,270,4.0,7.0,39,0.00,,,0.00,meteohub,2013-03-08 16:02:00,
2013-03-08 11:07:00,75.2,49.3,30.09,NW,315,3.0,7.0,40,0.00,,,0.00,meteohub,2013-03-08 16:07:00,
2013-03-08 11:12:00,75.2,48.6,30.08,NW,315,6.0,7.0,39,0.00,,,0.00,meteohub,2013-03-08 16:12:00,
2013-03-08 11:17:00,74.7,48.0,30.08,NW,315,9.0,9.0,39,0.00,,,0.00,meteohub,2013-03-08 16:17:00,
2013-03-08 11:22:00,75.2,48.6,30.08,NW,315,4.0,10.0,39,0.00,,,0.00,meteohub,2013-03-08 16:22:00,
2013-03-08 11:27:00,76.3,49.5,30.07,NW,315,3.0,10.0,39,0.00,,,0.00,meteohub,2013-03-08 16:27:00,
2013-03-08 11:32:00,75.7,46.9,30.07,North,0,5.0,10.0,36,0.00,,,0.00,meteohub,2013-03-08 16:32:00,
2013-03-08 11:37:00,75.9,47.8,30.07,West,270,5.0,8.0,37,0.00,,,0.00,meteohub,2013-03-08 16:37:00,
2013-03-08 11:42:00,75.9,48.6,30.07,North,0,2.0,8.0,38,0.00,,,0.00,meteohub,2013-03-08 16:42:00,
2013-03-08 11:47:00,76.5,48.2,30.07,NW,315,4.0,8.0,37,0.00,,,0.00,meteohub,2013-03-08 16:47:00,
2013-03-08 11:52:00,77.4,48.4,30.07,NW,315,2.0,7.0,36,0.00,,,0.00,meteohub,2013-03-08 16:52:00,
2013-03-08 11:57:00,78.4,48.6,30.06,NW,315,1.0,5.0,35,0.00,,,0.00,meteohub,2013-03-08 16:57:00,
2013-03-08 12:02:00,78.8,48.0,30.06,NW,315,3.0,4.0,34,0.00,,,0.00,meteohub,2013-03-08 17:02:00,
2013-03-08 12:07:00,78.4,46.2,30.06,North,0,3.0,6.0,32,0.00,,,0.00,meteohub,2013-03-08 17:07:00,
2013-03-08 12:12:00,79.3,47.7,30.06,NW,315,2.0,6.0,33,0.00,,,0.00,meteohub,2013-03-08 17:12:00,
2013-03-08 12:17:00,79.0,46.6,30.06,SW,225,2.0,5.0,32,0.00,,,0.00,meteohub,2013-03-08 17:17:00,
2013-03-08 12:22:00,79.0,48.2,30.06,SW,225,2.0,5.0,34,0.00,,,0.00,meteohub,2013-03-08 17:22:00,
2013-03-08 12:28:00,78.4,46.2,30.06,North,0,7.0,7.0,32,0.00,,,0.00,meteohub,2013-03-08 17:28:00,
2013-03-08 12:33:00,78.3,46.8,30.06,North,0,5.0,11.0,33,0.00,,,0.00,meteohub,2013-03-08 17:33:00,
2013-03-08 12:38:00,77.9,45.7,30.06,NW,315,6.0,11.0,32,0.00,,,0.00,meteohub,2013-03-08 17:38:00,
2013-03-08 12:43:00,78.4,48.6,30.05,NE,45,2.0,11.0,35,0.00,,,0.00,meteohub,2013-03-08 17:43:00,
2013-03-08 12:48:00,79.9,46.6,30.05,NW,315,5.0,10.0,31,0.00,,,0.00,meteohub,2013-03-08 17:48:00,
2013-03-08 12:53:00,79.3,45.1,30.05,North,0,8.0,10.0,30,0.00,,,0.00,meteohub,2013-03-08 17:53:00,
2013-03-08 12:58:00,78.6,47.1,30.04,West,270,2.0,8.0,33,0.00,,,0.00,meteohub,2013-03-08 17:58:00,
2013-03-08 13:03:00,79.0,46.6,30.04,SW,225,4.0,8.0,32,0.00,,,0.00,meteohub,2013-03-08 18:03:00,
2013-03-08 13:08:00,79.3,46.9,30.04,SW,225,4.0,8.0,32,0.00,,,0.00,meteohub,2013-03-08 18:08:00,
2013-03-08 13:14:00,79.5,44.4,30.03,SW,225,2.0,6.0,29,0.00,,,0.00,meteohub,2013-03-08 18:14:00,
2013-03-08 13:19:00,79.5,44.4,30.03,North,0,2.0,7.0,29,0.00,,,0.00,meteohub,2013-03-08 18:19:00,
2013-03-08 13:24:00,79.5,45.3,30.03,North,0,5.0,7.0,30,0.00,,,0.00,meteohub,2013-03-08 18:24:00,
2013-03-08 13:29:00,79.7,44.6,30.03,NW,315,6.0,7.0,29,0.00,,,0.00,meteohub,2013-03-08 18:29:00,
2013-03-08 13:34:00,79.9,43.9,30.02,NW,315,6.0,6.0,28,0.00,,,0.00,meteohub,2013-03-08 18:34:00,
2013-03-08 13:40:00,79.5,41.5,30.02,West,270,3.0,6.0,26,0.00,,,0.00,meteohub,2013-03-08 18:40:00,
2013-03-08 13:45:00,80.4,43.3,30.02,SW,225,3.0,6.0,27,0.00,,,0.00,meteohub,2013-03-08 18:45:00,
2013-03-08 13:50:00,80.2,46.0,30.03,NW,315,4.0,6.0,30,0.00,,,0.00,meteohub,2013-03-08 18:50:00,
2013-03-08 13:55:00,80.2,42.3,30.02,North,0,9.0,9.0,26,0.00,,,0.00,meteohub,2013-03-08 18:55:00,
2013-03-08 14:00:00,78.8,44.8,30.02,South,180,4.0,9.0,30,0.00,,,0.00,meteohub,2013-03-08 19:00:00,
2013-03-08 14:05:00,78.4,44.4,30.02,North,0,3.0,9.0,30,0.00,,,0.00,meteohub,2013-03-08 19:05:00,
2013-03-08 14:10:00,79.0,45.0,30.02,NE,45,1.0,9.0,30,0.00,,,0.00,meteohub,2013-03-08 19:10:00,
2013-03-08 14:15:00,79.7,43.7,30.01,NW,315,7.0,8.0,28,0.00,,,0.00,meteohub,2013-03-08 19:15:00,
2013-03-08 14:21:00,79.7,43.7,30.01,North,0,2.0,7.0,28,0.00,,,0.00,meteohub,2013-03-08 19:21:00,
2013-03-08 14:26:00,79.5,40.6,30.01,NW,315,7.0,7.0,25,0.00,,,0.00,meteohub,2013-03-08 19:26:00,
2013-03-08 14:31:00,79.5,41.5,30.01,North,0,2.0,8.0,26,0.00,,,0.00,meteohub,2013-03-08 19:31:00,
2013-03-08 14:36:00,79.9,41.9,30.01,West,270,4.0,8.0,26,0.00,,,0.00,meteohub,2013-03-08 19:36:00,
2013-03-08 14:41:00,80.2,44.2,30.01,NW,315,4.0,8.0,28,0.00,,,0.00,meteohub,2013-03-08 19:41:00,
2013-03-08 14:46:00,80.2,44.2,30.01,North,0,3.0,5.0,28,0.00,,,0.00,meteohub,2013-03-08 19:46:00,
2013-03-08 14:51:00,80.4,43.3,30.00,North,0,4.0,9.0,27,0.00,,,0.00,meteohub,2013-03-08 19:51:00,
2013-03-08 14:56:00,80.6,43.5,30.01,West,270,2.0,9.0,27,0.00,,,0.00,meteohub,2013-03-08 19:56:00,
2013-03-08 15:01:00,81.0,40.8,30.00,North,0,6.0,9.0,24,0.00,,,0.00,meteohub,2013-03-08 20:01:00,
2013-03-08 15:07:00,82.4,43.0,30.00,West,270,3.0,6.0,25,0.00,,,0.00,meteohub,2013-03-08 20:07:00,
2013-03-08 15:12:00,82.9,40.1,30.00,NW,315,5.0,6.0,22,0.00,,,0.00,meteohub,2013-03-08 20:12:00,
2013-03-08 15:17:00,82.8,40.1,30.00,West,270,4.0,7.0,22,0.00,,,0.00,meteohub,2013-03-08 20:17:00,
2013-03-08 15:22:00,82.4,40.8,30.00,South,180,4.0,7.0,23,0.00,,,0.00,meteohub,2013-03-08 20:22:00,
2013-03-08 15:27:00,82.2,40.8,30.00,North,0,4.0,6.0,23,0.00,,,0.00,meteohub,2013-03-08 20:27:00,
2013-03-08 15:32:00,82.9,41.4,29.99,SW,225,1.0,6.0,23,0.00,,,0.00,meteohub,2013-03-08 20:32:00,
2013-03-08 15:37:00,83.5,38.1,30.00,North,0,4.0,5.0,20,0.00,,,0.00,meteohub,2013-03-08 20:37:00,
2013-03-08 15:42:00,82.9,41.4,29.99,NW,315,4.0,9.0,23,0.00,,,0.00,meteohub,2013-03-08 20:42:00,
2013-03-08 15:47:00,83.1,40.3,30.00,North,0,2.0,9.0,22,0.00,,,0.00,meteohub,2013-03-08 20:47:00,
2013-03-08 15:52:00,82.9,37.8,30.00,NW,315,6.0,9.0,20,0.00,,,0.00,meteohub,2013-03-08 20:52:00,
2013-03-08 15:57:00,82.9,40.1,29.99,North,0,4.0,6.0,22,0.00,,,0.00,meteohub,2013-03-08 20:57:00,
2013-03-08 16:02:00,82.4,39.7,30.00,NW,315,3.0,6.0,22,0.00,,,0.00,meteohub,2013-03-08 21:02:00,
2013-03-08 16:07:00,82.8,41.2,29.99,West,270,2.0,6.0,23,0.00,,,0.00,meteohub,2013-03-08 21:07:00,
2013-03-08 16:12:00,82.9,37.8,29.99,North,0,7.0,7.0,20,0.00,,,0.00,meteohub,2013-03-08 21:12:00,
2013-03-08 16:17:00,82.6,39.9,29.99,NW,315,4.0,8.0,22,0.00,,,0.00,meteohub,2013-03-08 21:17:00,
2013-03-08 16:22:00,81.9,40.5,29.99,North,0,4.0,8.0,23,0.00,,,0.00,meteohub,2013-03-08 21:22:00,
2013-03-08 16:27:00,82.9,41.4,29.99,North,0,2.0,8.0,23,0.00,,,0.00,meteohub,2013-03-08 21:27:00,
2013-03-08 16:32:00,82.8,37.6,29.99,North,0,5.0,5.0,20,0.00,,,0.00,meteohub,2013-03-08 21:32:00,
2013-03-08 16:37:00,82.6,39.9,29.99,North,0,2.0,5.0,22,0.00,,,0.00,meteohub,2013-03-08 21:37:00,
2013-03-08 16:42:00,83.3,40.5,30.00,NW,315,2.0,6.0,22,0.00,,,0.00,meteohub,2013-03-08 21:42:00,
2013-03-08 16:47:00,84.0,39.9,30.00,North,0,2.0,6.0,21,0.00,,,0.00,meteohub,2013-03-08 21:47:00,
2013-03-08 16:52:00,84.0,45.5,30.00,North,0,1.0,5.0,26,0.00,,,0.00,meteohub,2013-03-08 21:52:00,
2013-03-08 16:57:00,84.0,49.3,30.00,North,0,4.0,4.0,30,0.00,,,0.00,meteohub,2013-03-08 21:57:00,
2013-03-08 17:02:00,83.7,48.9,30.01,NE,45,3.0,4.0,30,0.00,,,0.00,meteohub,2013-03-08 22:02:00,
2013-03-08 17:07:00,82.4,51.3,30.00,NE,45,2.0,4.0,34,0.00,,,0.00,meteohub,2013-03-08 22:07:00,
2013-03-08 17:12:00,81.0,51.4,30.00,East,90,8.0,8.0,36,0.00,,,0.00,meteohub,2013-03-08 22:12:00,
2013-03-08 17:18:00,78.6,52.3,30.00,East,90,7.0,8.0,40,0.00,,,0.00,meteohub,2013-03-08 22:18:00,
2013-03-08 17:23:00,77.7,52.9,30.00,East,90,6.0,8.0,42,0.00,,,0.00,meteohub,2013-03-08 22:23:00,
2013-03-08 17:28:00,77.0,52.9,30.00,North,0,4.0,8.0,43,0.00,,,0.00,meteohub,2013-03-08 22:28:00,
2013-03-08 17:33:00,76.5,53.6,30.01,East,90,2.0,7.0,45,0.00,,,0.00,meteohub,2013-03-08 22:33:00,
2013-03-08 17:38:00,75.6,53.2,30.01,NE,45,3.0,7.0,46,0.00,,,0.00,meteohub,2013-03-08 22:38:00,
2013-03-08 17:43:00,75.6,53.2,30.01,North,0,1.0,7.0,46,0.00,,,0.00,meteohub,2013-03-08 22:43:00,
2013-03-08 17:48:00,74.7,53.1,30.01,NE,45,5.0,7.0,47,0.00,,,0.00,meteohub,2013-03-08 22:48:00,
2013-03-08 17:53:00,73.2,54.0,30.01,East,90,8.0,8.0,51,0.00,,,0.00,meteohub,2013-03-08 22:53:00,
2013-03-08 17:59:00,72.1,54.1,30.01,East,90,5.0,6.0,53,0.00,,,0.00,meteohub,2013-03-08 22:59:00,
2013-03-08 18:04:00,71.1,53.6,30.01,East,90,4.0,8.0,54,0.00,,,0.00,meteohub,2013-03-08 23:04:00,
2013-03-08 18:09:00,70.3,54.0,30.02,NE,45,1.0,8.0,56,0.00,,,0.00,meteohub,2013-03-08 23:09:00,
2013-03-08 18:14:00,69.4,54.0,30.01,East,90,2.0,7.0,58,0.00,,,0.00,meteohub,2013-03-08 23:14:00,
2013-03-08 18:19:00,68.9,54.0,30.01,East,90,1.0,7.0,59,0.00,,,0.00,meteohub,2013-03-08 23:19:00,
2013-03-08 18:25:00,68.5,54.1,30.02,NE,45,1.0,3.0,60,0.00,,,0.00,meteohub,2013-03-08 23:25:00,
2013-03-08 18:30:00,68.0,54.5,30.02,East,90,2.0,2.0,62,0.00,,,0.00,meteohub,2013-03-08 23:30:00,
2013-03-08 18:35:00,67.6,54.7,30.02,NE,45,2.0,4.0,63,0.00,,,0.00,meteohub,2013-03-08 23:35:00,
2013-03-08 18:40:00,67.3,54.7,30.02,East,90,2.0,4.0,64,0.00,,,0.00,meteohub,2013-03-08 23:40:00,
2013-03-08 18:45:00,66.9,54.3,30.01,East,90,0.0,2.0,64,0.00,,,0.00,meteohub,2013-03-08 23:45:00,
2013-03-08 18:50:00,66.6,54.5,30.02,East,90,1.0,2.0,65,0.00,,,0.00,meteohub,2013-03-08 23:50:00,
2013-03-08 18:55:00,66.0,54.0,30.02,East,90,0.0,2.0,65,0.00,,,0.00,meteohub,2013-03-08 23:55:00,
2013-03-08 19:01:00,65.3,53.6,30.03,East,90,0.0,2.0,66,0.00,,,0.00,meteohub,2013-03-09 00:01:00,
2013-03-08 19:06:00,64.6,52.9,30.03,East,90,0.0,2.0,66,0.00,,,0.00,meteohub,2013-03-09 00:06:00,
2013-03-08 19:11:00,64.2,53.4,30.03,East,90,0.0,2.0,68,0.00,,,0.00,meteohub,2013-03-09 00:11:00,
2013-03-08 19:16:00,63.9,53.4,30.03,East,90,0.0,2.0,69,0.00,,,0.00,meteohub,2013-03-09 00:16:00,
2013-03-08 19:21:00,63.3,53.4,30.03,East,90,0.0,2.0,70,0.00,,,0.00,meteohub,2013-03-09 00:21:00,
2013-03-08 19:26:00,62.8,53.2,30.03,East,90,0.0,0.0,71,0.00,,,0.00,meteohub,2013-03-09 00:26:00,
2013-03-08 19:32:00,62.8,53.6,30.04,East,90,0.0,0.0,72,0.00,,,0.00,meteohub,2013-03-09 00:32:00,
2013-03-08 19:37:00,62.6,53.4,30.03,East,90,0.0,0.0,72,0.00,,,0.00,meteohub,2013-03-09 00:37:00,
2013-03-08 19:42:00,62.6,54.1,30.04,East,90,1.0,0.0,74,0.00,,,0.00,meteohub,2013-03-09 00:42:00,
2013-03-08 19:47:00,62.2,53.8,30.04,East,90,0.0,1.0,74,0.00,,,0.00,meteohub,2013-03-09 00:47:00,
2013-03-08 19:52:00,61.7,53.2,30.04,East,90,0.0,1.0,74,0.00,,,0.00,meteohub,2013-03-09 00:52:00,
2013-03-08 19:57:00,61.3,53.1,30.04,East,90,0.0,1.0,74,0.00,,,0.00,meteohub,2013-03-09 00:57:00,
2013-03-08 20:02:00,61.0,53.1,30.04,East,90,0.0,0.0,75,0.00,,,0.00,meteohub,2013-03-09 01:02:00,
2013-03-08 20:08:00,60.8,53.2,30.03,East,90,0.0,0.0,76,0.00,,,0.00,meteohub,2013-03-09 01:08:00,
2013-03-08 20:13:00,60.4,53.6,30.03,East,90,0.0,0.0,78,0.00,,,0.00,meteohub,2013-03-09 01:13:00,
2013-03-08 20:18:00,60.4,54.0,30.04,East,90,0.0,0.0,79,0.00,,,0.00,meteohub,2013-03-09 01:18:00,
2013-03-08 20:23:00,60.6,54.1,30.04,East,90,1.0,0.0,79,0.00,,,0.00,meteohub,2013-03-09 01:23:00,
2013-03-08 20:28:00,60.6,54.5,30.04,NW,315,1.0,1.0,80,0.00,,,0.00,meteohub,2013-03-09 01:28:00,
2013-03-08 20:33:00,60.8,54.7,30.04,NW,315,1.0,1.0,80,0.00,,,0.00,meteohub,2013-03-09 01:33:00,
2013-03-08 20:39:00,60.8,54.9,30.04,North,0,1.0,1.0,81,0.00,,,0.00,meteohub,2013-03-09 01:39:00,
2013-03-08 20:44:00,61.2,55.2,30.04,North,0,2.0,2.0,81,0.00,,,0.00,meteohub,2013-03-09 01:44:00,
2013-03-08 20:49:00,61.5,55.2,30.05,North,0,2.0,2.0,80,0.00,,,0.00,meteohub,2013-03-09 01:49:00,
2013-03-08 20:54:00,61.5,55.2,30.05,North,0,1.0,2.0,80,0.00,,,0.00,meteohub,2013-03-09 01:54:00,
2013-03-08 20:59:00,61.7,55.0,30.05,North,0,2.0,2.0,79,0.00,,,0.00,meteohub,2013-03-09 01:59:00,
2013-03-08 21:05:00,61.9,55.2,30.05,North,0,1.0,2.0,79,0.00,,,0.00,meteohub,2013-03-09 02:05:00,
2013-03-08 21:10:00,61.9,54.9,30.06,North,0,0.0,2.0,78,0.00,,,0.00,meteohub,2013-03-09 02:10:00,
2013-03-08 21:15:00,61.9,55.2,30.06,North,0,1.0,2.0,79,0.00,,,0.00,meteohub,2013-03-09 02:15:00,
2013-03-08 21:20:00,61.9,55.2,30.06,North,0,1.0,2.0,79,0.00,,,0.00,meteohub,2013-03-09 02:20:00,
2013-03-08 21:25:00,61.9,54.9,30.06,North,0,2.0,2.0,78,0.00,,,0.00,meteohub,2013-03-09 02:25:00,
2013-03-08 21:30:00,61.7,54.9,30.06,North,0,2.0,2.0,78,0.00,,,0.00,meteohub,2013-03-09 02:30:00,
2013-03-08 21:35:00,61.7,54.9,30.06,North,0,1.0,2.0,78,0.00,,,0.00,meteohub,2013-03-09 02:35:00,
2013-03-08 21:41:00,61.5,54.9,30.06,NW,315,1.0,2.0,79,0.00,,,0.00,meteohub,2013-03-09 02:41:00,
2013-03-08 21:46:00,61.2,54.9,30.06,North,0,2.0,2.0,80,0.00,,,0.00,meteohub,2013-03-09 02:46:00,
2013-03-08 21:51:00,61.0,54.7,30.06,North,0,2.0,2.0,80,0.00,,,0.00,meteohub,2013-03-09 02:51:00,
2013-03-08 21:56:00,60.8,54.7,30.06,North,0,1.0,2.0,80,0.00,,,0.00,meteohub,2013-03-09 02:56:00,
2013-03-08 22:01:00,60.8,54.9,30.06,North,0,1.0,2.0,81,0.00,,,0.00,meteohub,2013-03-09 03:01:00,
2013-03-08 22:06:00,60.6,54.7,30.05,North,0,1.0,2.0,81,0.00,,,0.00,meteohub,2013-03-09 03:06:00,
2013-03-08 22:11:00,60.4,54.9,30.05,North,0,2.0,2.0,82,0.00,,,0.00,meteohub,2013-03-09 03:11:00,
2013-03-08 22:17:00,60.3,54.7,30.06,North,0,2.0,2.0,82,0.00,,,0.00,meteohub,2013-03-09 03:17:00,
2013-03-08 22:22:00,60.3,54.7,30.06,North,0,1.0,2.0,82,0.00,,,0.00,meteohub,2013-03-09 03:22:00,
2013-03-08 22:27:00,60.4,55.2,30.06,North,0,1.0,2.0,83,0.00,,,0.00,meteohub,2013-03-09 03:27:00,
2013-03-08 22:32:00,60.3,55.0,30.05,North,0,1.0,2.0,83,0.00,,,0.00,meteohub,2013-03-09 03:32:00,
2013-03-08 22:37:00,60.1,54.9,30.05,North,0,1.0,2.0,83,0.00,,,0.00,meteohub,2013-03-09 03:37:00,
2013-03-08 22:42:00,59.7,54.5,30.06,North,0,1.0,2.0,83,0.00,,,0.00,meteohub,2013-03-09 03:42:00,
2013-03-08 22:47:00,59.7,54.5,30.06,NW,315,1.0,2.0,83,0.00,,,0.00,meteohub,2013-03-09 03:47:00,
2013-03-08 22:52:00,59.5,54.3,30.06,North,0,1.0,2.0,83,0.00,,,0.00,meteohub,2013-03-09 03:52:00,
2013-03-08 22:57:00,59.4,54.1,30.05,NNW,338,2.0,2.0,83,0.00,,,0.00,meteohub,2013-03-09 03:57:00,
2013-03-08 23:02:00,59.4,54.1,30.06,North,0,1.0,2.0,83,0.00,,,0.00,meteohub,2013-03-09 04:02:00,
2013-03-08 23:07:00,59.2,54.0,30.06,NW,315,1.0,2.0,83,0.00,,,0.00,meteohub,2013-03-09 04:07:00,
2013-03-08 23:12:00,59.2,54.0,30.06,NW,315,1.0,2.0,83,0.00,,,0.00,meteohub,2013-03-09 04:12:00,
2013-03-08 23:17:00,59.0,53.8,30.05,NW,315,0.0,1.0,83,0.00,,,0.00,meteohub,2013-03-09 04:17:00,
2013-03-08 23:22:00,58.8,53.4,30.05,NW,315,0.0,1.0,82,0.00,,,0.00,meteohub,2013-03-09 04:22:00,
2013-03-08 23:27:00,58.5,53.2,30.05,NW,315,0.0,1.0,83,0.00,,,0.00,meteohub,2013-03-09 04:27:00,
2013-03-08 23:32:00,57.9,52.7,30.04,NW,315,0.0,1.0,83,0.00,,,0.00,meteohub,2013-03-09 04:32:00,
2013-03-08 23:37:00,57.2,52.2,30.04,NW,315,0.0,1.0,83,0.00,,,0.00,meteohub,2013-03-09 04:37:00,
2013-03-08 23:42:00,56.7,51.8,30.04,NW,315,0.0,1.0,84,0.00,,,0.00,meteohub,2013-03-09 04:42:00,
2013-03-08 23:47:00,56.5,52.0,30.04,NW,315,0.0,1.0,85,0.00,,,0.00,meteohub,2013-03-09 04:47:00,
2013-03-08 23:52:00,56.3,52.2,30.04,NW,315,0.0,1.0,86,0.00,,,0.00,meteohub,2013-03-09 04:52:00,
2013-03-08 23:57:00,56.7,53.4,30.04,North,0,1.0,1.0,89,0.00,,,0.00,meteohub,2013-03-09 04:57:00,